Location: Gwatt
(46.7204°N, 7.6223°E)
Time: 02:04:40
(UTC+00:00)

Courier 1B Rocket - Pass Details

Date: 29 January 2021
Orbit: 920 x 1202 km, 28.3° (Epoch: 05 March)

Event Time Altitude Azimuth Distance (km) Brightness Sun altitude
Rises 08:09:36 0° 244° (WSW) 3,720 7.8 9.6°
Reaches altitude 10° 08:14:35 10° 212° (SSW) 2,844 7.6 10.3°
Maximum altitude 08:16:34 11° 195° (SSW) 2,775 7.8 10.6°
Drops below altitude 10° 08:18:35 10° 178° (S) 2,904 8.2 10.8°
Sets 08:23:53 0° 147° (SSE) 3,937 9.9 11.5°
